Dewpoint
23 25 23 22 21 19 13 9 18 18 17 24 22 24 28 30 14 8 25 35 28 22 22 27 41 49 51 51 52 53 54 54 55 55 56 57 57 58 58 58 58 58 58 57 57 57 57 57 56 56 55 55 55 54 52 52 51 51 51 50 50 49 49 49 48 47 48 48 47 46 45 44 44 44 44 44 44 44 44 45 45 43 43 43 42 42 42
24 23 23 25 23 21 18 12 15 16 18 21 20 20 26 28 25 28 26 35 34 29 25 38 41 49 51 52 52 54 53 54 54 54 55 56 57 58 58 58 58 58 57 57 56 56 56 55 55 55 54 54 53 53 52 51 50 50 50 50 49 49 48 48 47 46 46 47 45 44 43 43 43 43 43 43 43 43 43 43 43 43 42 43 42 42 42
24 26 27 26 24 24 24 15 10 14 19 21 19 22 28 30 28 30 31 31 30 29 40 41 50 51 53 53 52 52 53 54 54 54 55 56 57 57 58 58 57 57 57 57 56 56 56 56 55 55 54 53 53 52 51 51 50 50 49 49 49 48 47 47 46 45 45 44 44 43 42 42 43 42 41 42 42 41 42 42 43 43 43 42 42 42 42
24 26 29 30 27 26 23 19 17 17 23 23 25 22 33 23 22 26 28 25 24 25 46 51 51 52 51 52 52 53 53 53 53 54 55 56 56 57 57 57 57 57 57 56 56 56 56 56 56 55 54 53 52 52 51 50 50 49 50 49 48 47 46 45 45 44 44 43 42 42 42 41 41 41 41 41 40 41 41 42 43 43 43 42 43 43 43
24 28 27 27 21 18 15 19 21 23 25 22 27 25 34 30 28 28 23 19 22 36 46 47 50 51 52 52 52 53 53 53 54 54 54 55 56 56 57 57 57 57 57 57 57 57 56 55 55 55 53 52 52 51 50 50 49 49 49 48 47 46 45 44 43 44 43 42 41 41 41 41 41 41 39 39 39 40 40 42 42 42 42 42 42 43 43
23 28 26 23 17 11 11 27 28 24 24 24 24 23 28 33 30 25 28 23 37 44 48 45 49 50 51 52 54 54 54 54 54 54 55 55 55 56 57 57 57 57 57 57 57 57 56 55 54 54 53 52 52 52 51 50 49 49 47 47 46 45 44 43 43 43 42 41 41 41 41 41 41 39 39 38 40 40 41 41 41 41 42 43 42 42 42
21 25 22 15 12 12 27 35 35 27 26 20 21 25 23 30 32 36 34 33 36 40 45 48 48 51 52 52 53 53 53 54 54 54 54 54 55 56 57 57 57 57 57 57 56 56 55 55 54 54 53 53 52 51 51 50 49 49 47 46 46 45 44 43 43 42 41 41 41 41 40 40 40 39 39 40 39 39 39 39 40 40 41 42 42 42 42
23 21 14 12 11 25 33 36 38 38 33 32 28 28 34 34 32 33 35 35 38 41 44 47 49 51 53 53 53 54 54 55 55 55 55 55 55 56 57 57 58 57 57 56 56 55 55 54 53 53 53 53 52 51 50 49 49 48 48 47 46 45 44 43 42 42 41 41 42 41 39 39 38 38 39 39 39 39 39 39 39 40 40 41 41 42 42
21 20 16 14 30 30 32 33 32 32 29 27 22 20 23 39 40 37 34 38 42 45 48 51 52 53 53 53 52 54 55 56 56 56 56 56 56 56 57 58 58 59 58 57 56 55 54 54 53 53 52 52 51 50 49 49 49 48 47 46 45 44 44 43 43 45 45 44 43 41 40 37 37 37 38 38 39 38 38 38 38 38 40 40 41 41 41
25 22 19 20 21 20 27 32 36 38 39 39 39 31 24 37 38 41 40 41 43 48 50 51 52 54 50 51 52 53 54 56 57 57 57 57 57 57 58 58 58 58 57 57 56 55 54 53 53 53 52 52 51 50 49 48 48 48 47 46 45 44 43 43 43 44 44 44 42 39 38 37 37 37 37 37 37 37 36 36 36 38 39 39 40 40 40
22 21 20 21 20 22 29 33 35 37 38 40 40 27 18 34 38 39 41 41 44 49 50 51 52 48 44 44 45 53 55 55 56 56 56 57 57 57 57 58 58 57 57 56 55 54 54 53 53 53 51 51 50 49 49 48 48 47 47 46 45 44 43 43 44 45 45 44 42 39 38 38 38 36 36 36 36 36 36 36 37 37 37 38 38 39 40
20 20 18 20 22 24 32 35 38 39 39 41 28 13 16 37 37 40 41 42 45 50 52 52 50 45 40 41 45 52 55 55 56 56 57 56 57 57 57 58 58 58 57 55 54 54 53 53 53 52 51 50 50 49 49 48 47 47 47 46 44 44 44 43 44 45 46 44 41 40 38 38 36 36 36 35 36 35 35 34 35 35 36 37 38 38 39
22 19 19 22 26 33 38 38 41 42 41 31 18 14 18 39 41 40 42 44 47 50 52 52 48 46 48 48 51 54 55 55 56 57 58 58 57 57 57 57 54 57 56 55 54 54 54 53 52 51 51 50 50 49 49 48 48 48 47 46 45 44 44 43 45 45 45 44 43 42 42 41 40 40 40 40 37 35 34 34 35 36 37 38 38 38 38
20 24 23 22 25 33 36 42 41 43 31 18 15 28 40 44 45 44 43 46 49 51 52 51 49 49 50 51 53 55 56 56 56 56 57 57 57 57 56 56 56 56 55 55 55 54 53 52 51 51 50 50 50 49 48 48 48 48 47 46 45 45 44 45 45 46 45 46 45 43 41 40 38 40 40 39 38 38 33 34 36 36 37 37 36 37 38
23 24 22 21 22 30 43 43 35 36 25 27 37 41 46 43 46 47 46 47 49 52 52 52 51 52 52 53 54 55 56 56 56 56 56 57 57 57 57 56 55 55 55 55 54 54 53 52 51 51 51 50 50 49 48 48 48 47 46 45 44 44 44 45 46 46 46 45 43 42 41 40 38 38 36 36 37 36 35 35 35 35 36 36 36 36 37
20 21 24 23 34 39 44 43 30 41 39 41 41 48 47 48 47 49 48 47 49 51 53 51 52 52 53 53 54 55 55 56 56 56 57 57 57 57 56 56 55 55 55 55 55 54 53 52 51 51 51 50 49 49 48 49 49 47 46 45 44 43 44 44 45 45 45 45 44 42 41 40 41 40 38 36 35 36 34 33 33 33 33 35 34 34 34
25 26 27 36 41 41 42 44 45 46 48 47 43 48 49 48 48 49 49 47 47 50 52 52 52 52 52 54 55 55 55 56 55 56 56 56 56 56 56 55 55 55 54 55 54 53 52 52 51 51 51 50 49 49 49 48 47 46 45 44 44 43 44 45 45 45 45 45 45 43 42 41 40 40 38 38 38 36 33 32 31 31 31 31 30 30 29
36 36 36 44 41 44 44 44 45 46 47 47 48 48 49 49 49 50 50 49 48 48 52 52 51 52 52 53 53 54 55 55 56 56 55 56 56 56 56 55 55 55 55 55 53 52 51 51 51 51 51 50 50 50 49 47 46 45 44 43 43 43 43 44 45 44 45 45 45 44 43 41 41 38 37 35 34 34 32 30 30 30 30 29 28 27 27
36 35 41 41 44 44 45 45 45 47 47 47 47 49 49 49 50 50 50 51 50 50 50 50 50 51 51 53 53 54 54 54 54 55 55 55 55 55 55 55 54 55 54 54 53 52 51 51 50 50 51 51 50 50 47 46 45 45 44 44 43 43 43 43 45 44 43 44 43 43 42 41 40 39 38 35 34 34 32 31 31 31 32 32 31 30 30
34 35 41 42 43 46 47 48 45 45 45 46 47 47 48 48 49 49 49 50 50 50 50 51 51 51 50 52 53 53 54 54 54 54 54 55 55 55 55 54 54 54 54 54 53 52 51 51 51 50 50 49 49 48 47 45 45 44 45 45 45 44 43 43 43 44 44 40 42 42 41 41 42 41 40 36 33 32 33 34 30 32 34 34 33 34 33
41 40 41 44 43 44 47 49 49 48 47 46 47 47 48 48 48 49 49 50 50 51 51 52 54 52 51 51 53 53 52 53 54 54 54 54 55 54 54 54 54 54 54 53 52 51 51 51 51 50 50 49 47 47 46 45 45 44 44 44 45 45 45 44 43 44 44 42 42 43 42 42 43 41 39 38 35 34 34 34 34 35 35 36 36 36 35
35 38 40 43 37 36 42 45 48 48 49 47 46 48 47 47 47 48 49 48 49 50 50 51 52 52 52 52 53 52 53 53 54 54 53 54 54 54 53 53 54 54 54 54 52 51 51 51 50 50 50 48 47 46 45 45 45 45 44 44 45 45 45 44 43 43 43 43 43 42 42 43 41 41 37 39 38 40 36 35 33 34 34 36 37 37 36
31 41 40 46 44 45 48 49 48 46 49 47 47 47 47 47 47 47 49 48 48 48 50 49 51 52 53 52 52 52 52 52 53 53 53 53 53 53 53 53 54 54 54 53 52 51 50 50 50 49 49 48 47 46 45 45 45 44 44 43 43 44 43 43 42 43 43 43 43 42 42 41 42 41 43 40 35 36 37 36 35 34 34 34 35 35 37
40 41 41 48 49 48 48 47 48 46 48 45 46 45 46 46 47 46 47 47 47 47 49 50 50 51 52 52 53 52 51 51 52 53 53 53 52 52 52 53 53 53 53 52 51 50 49 49 49 49 48 48 47 46 45 45 45 45 44 43 43 42 42 42 41 42 43 43 42 42 41 41 40 41 42 40 39 36 34 36 36 35 34 34 34 35 35
40 44 43 44 49 50 47 49 49 47 46 46 46 46 47 47 46 47 47 47 46 46 47 49 50 50 52 51 52 53 52 51 52 51 51 50 50 51 52 52 52 52 51 51 51 50 49 49 49 48 48 47 47 45 45 45 45 44 44 44 43 42 41 41 40 40 42 42 41 41 41 40 42 42 41 42 42 40 39 35 35 35 35 34 34 35 35
44 45 44 44 45 45 47 47 45 44 44 45 46 45 46 47 47 46 46 47 47 47 48 48 50 51 51 51 51 51 51 51 49 49 51 51 51 51 51 52 52 51 51 50 50 49 49 49 48 48 47 46 46 45 45 45 45 45 44 44 43 42 41 41 40 41 42 41 41 40 40 39 39 39 39 40 41 40 36 37 36 36 34 35 35 35 35
45 46 45 44 44 45 46 46 43 44 44 44 46 45 44 44 45 45 45 45 45 46 48 49 50 50 50 50 50 50 51 50 50 51 51 51 51 51 51 51 51 51 50 50 49 48 46 47 47 47 47 46 45 44 44 44 45 44 44 44 43 38 36 38 42 42 42 42 41 40 40 39 38 38 38 38 38 36 34 35 35 34 36 35 35 35 36
47 47 45 45 46 45 48 45 44 43 43 43 44 43 42 43 45 45 45 45 45 45 46 47 49 51 51 50 50 50 50 50 51 50 50 50 50 50 51 51 51 50 50 49 49 47 47 47 47 47 47 46 45 45 44 44 45 45 45 43 42 40 40 40 41 42 42 44 42 41 40 40 39 39 40 39 39 39 38 39 39 36 34 35 35 34 35
48 47 44 44 44 47 47 44 43 42 42 43 43 43 43 44 45 45 45 45 45 46 46 46 48 49 50 50 50 50 50 50 50 50 50 49 49 50 50 50 50 49 49 48 48 47 47 47 47 47 47 46 45 44 44 44 44 44 44 45 43 40 40 40 41 42 43 43 42 41 38 39 40 41 42 41 40 41 39 39 37 38 36 35 36 35 34
47 45 45 44 44 43 42 41 41 42 42 42 43 42 43 45 44 45 45 45 45 46 45 46 48 49 49 50 49 50 50 50 49 49 49 49 49 49 49 48 48 48 49 48 47 47 47 47 47 47 46 46 45 45 44 45 44 43 43 43 42 40 40 40 42 43 43 43 44 37 40 41 40 40 39 38 39 39 38 38 38 39 38 36 35 37 37
44 44 43 44 42 42 41 41 41 41 41 42 43 43 44 44 45 46 45 45 46 46 46 46 46 47 47 47 48 49 49 49 49 49 48 48 48 48 47 48 48 46 47 47 47 47 47 47 47 47 47 45 44 44 45 45 44 44 43 42 42 37 36 36 38 42 43 42 42 42 42 42 41 40 38 41 40 41 41 41 39 38 37 34 34 36 36
42 43 43 43 42 42 41 41 41 41 41 42 42 42 44 45 45 45 45 46 45 45 46 47 46 46 46 45 46 48 49 49 49 48 48 48 48 48 47 49 48 45 48 48 47 47 47 47 47 47 46 44 44 44 45 45 44 43 43 39 41 39 37 36 39 41 42 40 41 41 40 41 42 41 40 40 41 41 41 41 40 39 38 35 33 34 35
43 41 41 42 41 42 41 41 41 41 42 43 44 43 43 44 45 45 45 45 45 46 47 46 45 45 45 46 48 48 48 47 48 48 47 47 47 47 47 48 48 48 48 48 47 47 47 47 47 46 45 44 44 43 45 45 44 43 42 41 41 40 37 37 38 41 41 41 41 41 40 40 41 40 39 38 38 37 37 38 38 36 35 34 34 35 35
43 43 43 43 43 41 42 42 41 42 42 42 43 43 44 44 45 45 44 44 46 46 46 45 44 44 45 47 47 47 48 49 48 47 47 47 47 47 47 47 47 47 47 48 47 46 46 47 47 46 45 44 43 44 43 43 43 42 42 42 41 40 40 41 41 42 41 40 41 40 40 40 41 40 38 37 37 37 37 36 35 35 33 34 34 34 32
44 42 44 44 44 45 44 43 42 43 43 43 43 43 43 43 43 44 43 45 46 45 43 42 42 43 45 46 46 45 46 46 44 46 46 46 47 47 47 47 46 46 46 46 47 46 47 47 46 45 45 44 44 44 44 43 43 42 42 42 41 40 40 41 42 42 41 41 41 41 41 42 41 38 38 39 38 38 37 37 37 35 33 33 35 33 31
42 41 41 42 41 43 43 43 43 43 44 44 44 44 43 43 43 44 45 44 42 41 42 42 42 43 43 42 42 42 42 39 37 37 41 44 46 47 47 46 46 46 46 46 46 47 46 46 40 39 45 44 44 44 43 43 43 42 42 42 40 40 40 40 41 41 41 41 41 41 41 38 39 39 39 39 38 38 37 37 37 35 33 32 33 33 31
41 42 41 41 41 43 43 42 42 43 43 43 43 43 43 43 44 43 42 41 41 41 41 42 45 44 42 39 39 39 39 40 39 38 38 37 43 46 47 46 46 46 46 46 47 47 46 45 37 36 42 43 43 44 45 37 43 42 42 42 41 40 41 41 42 42 42 41 41 41 38 39 40 40 39 39 39 38 37 37 35 35 34 33 32 32 31
40 41 41 42 42 43 43 42 42 42 42 42 42 43 44 43 42 42 41 41 41 40 42 43 42 41 40 40 40 38 36 36 36 38 40 43 45 46 46 46 46 46 45 45 46 46 46 42 34 39 44 43 43 44 41 35 37 41 41 41 40 40 40 40 41 42 41 42 40 42 41 41 41 41 41 41 40 39 38 37 36 35 34 33 32 32 31
40 41 41 41 42 42 41 42 42 43 43 43 43 43 42 42 42 42 42 41 40 39 41 41 40 41 41 43 42 42 41 37 38 42 44 44 45 45 44 44 44 44 45 46 46 45 45 41 41 43 43 43 43 43 38 34 35 40 41 41 42 40 40 41 41 41 40 40 40 40 39 39 39 40 39 39 39 38 37 37 36 35 34 33 32 32 32
41 42 41 42 42 42 42 42 42 43 43 44 43 43 42 42 42 42 42 42 40 38 40 40 41 41 41 41 42 42 42 40 41 43 44 45 45 45 45 46 46 46 45 40 45 44 42 38 42 45 44 44 43 42 38 36 36 40 41 41 41 40 40 40 40 40 40 40 39 37 39 38 38 38 38 38 37 37 36 36 35 35 34 33 33 32 32
41 41 42 42 42 42 42 42 43 43 42 43 43 44 43 43 42 43 43 42 41 40 40 41 41 40 40 40 41 41 41 39 40 42 42 45 45 45 46 45 46 46 46 45 45 43 40 39 42 43 44 42 42 39 39 35 38 41 41 40 40 40 40 41 40 41 40 40 39 39 40 39 39 38 37 37 37 37 36 35 35 34 34 34 33 33 33
41 41 41 42 42 42 42 43 42 42 43 43 42 43 42 42 43 43 42 42 41 41 41 39 35 40 40 39 39 40 42 42 43 43 44 46 46 45 45 46 46 45 37 41 41 41 42 42 41 39 43 42 41 36 35 36 40 41 41 42 42 43 42 42 42 42 42 42 41 41 40 40 39 39 37 37 37 36 36 35 34 34 34 34 33 33 33
41 42 42 42 42 42 42 42 43 43 43 42 42 42 42 42 42 42 42 42 42 41 41 40 39 38 40 40 41 41 41 42 43 44 44 43 43 43 45 46 46 44 33 41 43 43 43 43 43 43 39 40 40 33 34 39 41 41 41 42 42 43 42 43 43 44 44 43 42 41 40 39 39 38 37 37 36 36 35 35 35 34 34 34 34 34 34
41 41 41 41 42 42 42 42 42 42 42 43 42 43 43 42 42 43 43 42 41 41 41 40 40 40 39 40 40 41 42 42 43 43 44 44 44 44 42 43 43 39 33 40 42 42 42 44 46 42 35 35 34 34 40 41 42 42 42 41 41 41 42 42 42 42 42 42 43 43 43 40 40 39 37 37 36 36 35 35 35 35 34 34 34 34 34
41 41 42 42 42 41 41 41 41 41 42 42 42 42 43 42 42 42 42 42 41 41 39 40 40 40 40 40 39 40 41 42 43 43 44 43 43 43 43 37 40 40 38 34 43 43 43 43 41 35 35 33 33 35 42 43 43 42 42 42 42 42 43 42 41 43 42 43 42 43 42 40 40 39 39 38 35 37 35 34 34 34 34 33 34 33 33
41 41 41 38 41 41 41 42 42 42 42 42 43 42 42 42 42 42 41 41 42 42 41 41 40 40 40 40 39 39 40 40 41 42 42 43 43 43 40 35 40 35 34 34 43 44 43 32 33 33 33 33 34 39 43 43 43 43 43 42 43 42 42 42 42 42 41 41 41 42 42 42 41 41 41 38 37 36 37 34 34 35 35 34 33 33 33
41 41 41 42 42 42 42 42 42 42 42 42 41 42 42 42 42 42 42 41 41 41 40 40 40 40 40 40 40 39 39 40 40 40 41 42 39 37 36 34 32 33 37 43 43 43 41 41 35 33 33 33 35 43 44 44 44 44 43 43 43 42 42 43 43 42 42 42 41 41 39 41 42 44 41 39 39 35 35 34 34 34 33 33 33 32 32
41 41 41 41 41 42 42 42 41 41 41 39 40 41 42 43 42 42 43 42 41 41 41 41 40 40 39 39 40 40 40 39 39 40 39 42 42 40 41 43 40 33 35 35 36 35 31 33 33 33 33 35 41 44 44 44 44 43 43 43 43 43 43 43 43 43 42 42 41 42 42 44 43 40 38 37 36 35 34 34 35 35 35 34 34 34 34
41 41 41 41 42 42 42 42 41 40 41 40 41 40 41 42 42 43 43 43 42 41 41 41 41 41 41 40 40 40 39 39 40 39 40 41 43 43 42 36 31 33 38 42 43 41 34 33 33 33 34 37 43 43 43 43 43 42 42 43 43 43 43 42 42 43 43 42 41 42 41 39 39 38 37 36 36 37 35 34 35 34 34 33 33 32 32
40 40 40 41 41 41 41 41 40 40 41 40 40 41 42 42 41 42 42 42 42 40 42 41 41 41 42 41 40 40 40 40 39 40 40 41 42 42 42 41 40 35 37 42 43 40 32 32 33 33 37 43 44 43 43 43 43 42 43 42 41 41 41 39 38 38 41 39 40 39 39 39 37 36 36 35 36 35 35 35 35 34 31 31 32 33 31
40 40 40 40 41 42 42 41 41 42 41 41 42 41 41 41 39 40 42 43 42 41 41 42 42 42 41 41 41 41 40 40 39 37 41 41 41 38 37 39 41 38 40 40 42 41 40 40 40 37 39 42 43 43 42 42 42 41 40 41 41 40 39 38 39 39 39 38 38 38 38 38 37 37 36 35 35 35 34 34 33 34 33 32 32 32 32
38 39 39 39 40 40 40 40 39 40 40 40 41 41 42 41 41 41 41 37 42 40 41 41 39 41 41 42 41 41 40 41 40 40 38 40 41 41 37 34 40 39 41 42 41 42 40 39 36 36 37 41 41 42 39 39 41 41 41 40 39 40 38 39 38 39 39 38 38 38 38 38 37 36 35 36 34 34 33 33 32 32 32 32 32 32 32